ASA1450 KLAX-KSFO

Flight info

Callsign ASA1450
Flight time 0h 52m
Altitude 30000
Route SUMMR2 STOKD SERFR SERFR4
Aircraft B738/M-SDE2E3FGHIRWXY/LB1

Departure

Time 2026-04-25 03:46
Airport Los Angeles International Airport (KLAX)

Arrival

Time 2026-04-25 04:38
Airport San Francisco International Airport (KSFO)
Time Latitude Longitude Altitude Speed Heading
2026-04-25 03:17 33.94054 -118.40129 94 ft 0 kts 265°
2026-04-25 03:32 33.94055 -118.40104 92 ft 2 kts 265°
2026-04-25 03:32 33.94060 -118.40078 92 ft 4 kts 221°
2026-04-25 03:32 33.94070 -118.40072 92 ft 3 kts 173°
2026-04-25 03:33 33.94047 -118.40069 91 ft 1 kts 173°
2026-04-25 03:38 33.94044 -118.40068 93 ft 2 kts 173°
2026-04-25 03:38 33.94012 -118.40064 94 ft 7 kts 173°
2026-04-25 03:39 33.93953 -118.40100 94 ft 13 kts 256°
2026-04-25 03:39 33.93940 -118.40209 94 ft 13 kts 264°
2026-04-25 03:39 33.93930 -118.40316 93 ft 13 kts 263°
2026-04-25 03:39 33.93919 -118.40420 93 ft 12 kts 263°
2026-04-25 03:40 33.93908 -118.40527 93 ft 15 kts 263°
2026-04-25 03:40 33.93893 -118.40677 94 ft 21 kts 263°
2026-04-25 03:40 33.93875 -118.40853 92 ft 22 kts 263°
2026-04-25 03:40 33.93855 -118.41030 92 ft 21 kts 262°
2026-04-25 03:41 33.93875 -118.41158 92 ft 15 kts 327°
2026-04-25 03:41 33.93981 -118.41180 93 ft 18 kts 352°
2026-04-25 03:41 33.94120 -118.41199 93 ft 23 kts 353°
2026-04-25 03:41 33.94295 -118.41225 93 ft 28 kts 354°
2026-04-25 03:42 33.94486 -118.41254 92 ft 27 kts 352°
2026-04-25 03:42 33.94657 -118.41279 94 ft 19 kts 353°
2026-04-25 03:42 33.94779 -118.41277 94 ft 15 kts 35°
2026-04-25 03:42 33.94805 -118.41156 94 ft 17 kts 83°
2026-04-25 03:43 33.94822 -118.40992 94 ft 23 kts 83°
2026-04-25 03:43 33.94843 -118.40787 93 ft 25 kts 83°
2026-04-25 03:43 33.94864 -118.40588 94 ft 23 kts 83°
2026-04-25 03:43 33.94884 -118.40401 93 ft 22 kts 83°
2026-04-25 03:44 33.94901 -118.40221 95 ft 21 kts 83°
2026-04-25 03:44 33.94915 -118.40088 94 ft 11 kts 82°
2026-04-25 03:44 33.94938 -118.40063 92 ft 2 kts 357°
2026-04-25 03:44 33.94949 -118.40065 93 ft 2 kts 354°
2026-04-25 03:45 33.94984 -118.40068 94 ft 10 kts 355°
2026-04-25 03:45 33.95025 -118.40091 94 ft 5 kts 289°
2026-04-25 03:45 33.95024 -118.40135 97 ft 5 kts 264°
2026-04-25 03:45 33.95010 -118.40271 97 ft 43 kts 263°
2026-04-25 03:46 33.94942 -118.40919 96 ft 111 kts 263°
2026-04-25 03:46 33.94823 -118.42053 192 ft 154 kts 262°
2026-04-25 03:46 33.94678 -118.43362 806 ft 160 kts 262°
2026-04-25 03:46 33.94547 -118.44692 1569 ft 160 kts 263°
2026-04-25 03:47 33.94418 -118.46049 2109 ft 177 kts 263°
2026-04-25 03:47 33.94304 -118.47654 2372 ft 206 kts 268°
2026-04-25 03:47 33.94250 -118.49473 2626 ft 226 kts 268°
2026-04-25 03:47 33.94197 -118.51396 3146 ft 234 kts 266°
2026-04-25 03:48 33.94054 -118.53359 3802 ft 237 kts 264°
2026-04-25 03:48 33.93885 -118.55394 4215 ft 256 kts 264°
2026-04-25 03:48 33.93709 -118.57558 4918 ft 262 kts 264°
2026-04-25 03:48 33.93532 -118.59762 5683 ft 267 kts 264°
2026-04-25 03:49 33.93356 -118.61988 6539 ft 268 kts 264°
2026-04-25 03:49 33.93179 -118.64229 7332 ft 269 kts 264°
2026-04-25 03:49 33.93004 -118.66474 8156 ft 270 kts 264°
2026-04-25 03:49 33.92828 -118.68745 8899 ft 274 kts 264°
2026-04-25 03:50 33.92652 -118.71009 9693 ft 276 kts 264°
2026-04-25 03:50 33.92473 -118.73316 10383 ft 281 kts 264°
2026-04-25 03:50 33.92284 -118.75752 10583 ft 304 kts 264°
2026-04-25 03:50 33.92078 -118.78376 10758 ft 326 kts 264°
2026-04-25 03:51 33.91859 -118.81169 10999 ft 343 kts 264°
2026-04-25 03:51 33.91676 -118.84065 11559 ft 349 kts 268°
2026-04-25 03:51 33.91726 -118.86983 12324 ft 349 kts 272°
2026-04-25 03:51 33.91853 -118.89897 13145 ft 348 kts 272°
2026-04-25 03:52 33.91969 -118.92809 13902 ft 349 kts 271°
2026-04-25 03:52 33.92066 -118.95738 14548 ft 352 kts 271°
2026-04-25 03:52 33.92230 -118.98697 14905 ft 356 kts 278°
2026-04-25 03:52 33.93038 -119.01520 15001 ft 361 kts 294°
2026-04-25 03:53 33.94442 -119.04042 15008 ft 366 kts 308°
2026-04-25 03:53 33.96273 -119.06139 15021 ft 369 kts 314°
2026-04-25 03:53 33.98212 -119.08175 15018 ft 371 kts 315°
2026-04-25 03:53 34.00173 -119.10201 15017 ft 371 kts 315°
2026-04-25 03:54 34.02132 -119.12225 15017 ft 371 kts 315°
2026-04-25 03:54 34.04087 -119.14255 15038 ft 371 kts 315°
2026-04-25 03:54 34.06043 -119.16302 15161 ft 375 kts 315°
2026-04-25 03:54 34.08020 -119.18384 15783 ft 377 kts 315°
2026-04-25 03:55 34.09989 -119.20463 16569 ft 376 kts 314°
2026-04-25 03:55 34.11960 -119.22549 17234 ft 377 kts 314°
2026-04-25 03:55 34.13914 -119.24624 17821 ft 381 kts 314°
2026-04-25 03:55 34.15913 -119.26749 18357 ft 385 kts 314°
2026-04-25 03:56 34.17929 -119.28896 18849 ft 388 kts 314°
2026-04-25 03:56 34.19961 -119.31060 19399 ft 390 kts 314°
2026-04-25 03:56 34.21998 -119.33229 19957 ft 392 kts 314°
2026-04-25 03:56 34.24045 -119.35411 20529 ft 393 kts 314°
2026-04-25 03:57 34.26098 -119.37601 21068 ft 395 kts 314°
2026-04-25 03:57 34.28166 -119.39808 21583 ft 397 kts 314°
2026-04-25 03:57 34.30242 -119.42027 22085 ft 400 kts 314°
2026-04-25 03:57 34.32331 -119.44259 22563 ft 402 kts 314°
2026-04-25 03:58 34.34433 -119.46509 23031 ft 405 kts 314°
2026-04-25 03:58 34.36546 -119.48771 23494 ft 407 kts 314°
2026-04-25 03:58 34.38670 -119.51046 23885 ft 409 kts 313°
2026-04-25 03:58 34.40804 -119.53334 24316 ft 410 kts 313°
2026-04-25 03:59 34.42941 -119.55625 24715 ft 412 kts 313°
2026-04-25 03:59 34.45066 -119.57906 25028 ft 416 kts 313°
2026-04-25 03:59 34.47238 -119.60242 25387 ft 418 kts 313°
2026-04-25 03:59 34.49417 -119.62584 25749 ft 420 kts 313°
2026-04-25 04:00 34.51602 -119.64935 26114 ft 421 kts 313°
2026-04-25 04:00 34.53796 -119.67296 26481 ft 423 kts 313°
2026-04-25 04:00 34.56000 -119.69671 26799 ft 425 kts 313°
2026-04-25 04:00 34.58220 -119.72065 27136 ft 428 kts 313°
2026-04-25 04:01 34.60447 -119.74468 27474 ft 430 kts 313°
2026-04-25 04:01 34.62680 -119.76878 27867 ft 430 kts 313°
2026-04-25 04:01 34.64905 -119.79280 28419 ft 426 kts 313°
2026-04-25 04:01 34.67110 -119.81661 28982 ft 422 kts 312°
2026-04-25 04:02 34.69306 -119.84035 29457 ft 422 kts 312°
2026-04-25 04:02 34.71472 -119.86382 29818 ft 424 kts 312°
2026-04-25 04:02 34.73677 -119.88776 29921 ft 427 kts 312°
2026-04-25 04:02 34.75888 -119.91176 29976 ft 425 kts 312°
2026-04-25 04:03 34.80269 -119.95929 29974 ft 420 kts 312°
2026-04-25 04:03 34.84638 -120.00682 29974 ft 422 kts 312°
2026-04-25 04:04 34.89010 -120.05445 29982 ft 422 kts 312°
2026-04-25 04:04 34.93392 -120.10225 29997 ft 423 kts 312°
2026-04-25 04:05 34.97772 -120.15010 29988 ft 423 kts 312°
2026-04-25 04:05 35.02122 -120.19769 29988 ft 423 kts 312°
2026-04-25 04:06 35.06497 -120.24561 29998 ft 422 kts 312°
2026-04-25 04:06 35.10867 -120.29356 30006 ft 422 kts 311°
2026-04-25 04:07 35.15225 -120.34145 29994 ft 422 kts 311°
2026-04-25 04:07 35.19580 -120.38939 29985 ft 420 kts 311°
2026-04-25 04:08 35.23919 -120.43721 29997 ft 419 kts 311°
2026-04-25 04:08 35.28252 -120.48505 30005 ft 420 kts 311°
2026-04-25 04:09 35.32555 -120.53263 30003 ft 419 kts 311°
2026-04-25 04:09 35.36879 -120.58050 29998 ft 419 kts 311°
2026-04-25 04:10 35.41193 -120.62833 29997 ft 418 kts 311°
2026-04-25 04:10 35.45506 -120.67623 30000 ft 418 kts 311°
2026-04-25 04:11 35.51957 -120.74801 29998 ft 417 kts 311°
2026-04-25 04:12 35.56250 -120.79587 29999 ft 417 kts 311°
2026-04-25 04:12 35.60599 -120.84250 30006 ft 421 kts 314°
2026-04-25 04:13 35.65252 -120.88644 29995 ft 422 kts 316°
2026-04-25 04:13 35.69939 -120.93009 29981 ft 422 kts 315°
2026-04-25 04:14 35.74594 -120.97407 29972 ft 422 kts 315°
2026-04-25 04:14 35.79234 -121.01835 29969 ft 423 kts 315°
2026-04-25 04:15 35.83845 -121.06253 29970 ft 422 kts 315°
2026-04-25 04:15 35.88480 -121.10700 29982 ft 422 kts 315°
2026-04-25 04:16 35.93116 -121.15155 30007 ft 422 kts 315°
2026-04-25 04:16 35.97742 -121.19605 29981 ft 421 kts 315°
2026-04-25 04:17 36.02339 -121.24033 29976 ft 418 kts 315°
2026-04-25 04:17 36.06885 -121.28421 29478 ft 420 kts 315°
2026-04-25 04:17 36.09166 -121.30623 29038 ft 413 kts 315°
2026-04-25 04:18 36.11410 -121.32790 28581 ft 407 kts 316°
2026-04-25 04:18 36.13628 -121.34934 28073 ft 402 kts 316°
2026-04-25 04:18 36.15816 -121.37051 27568 ft 397 kts 316°
2026-04-25 04:18 36.17977 -121.39145 27104 ft 392 kts 316°
2026-04-25 04:19 36.20109 -121.41213 26607 ft 388 kts 316°
2026-04-25 04:19 36.22223 -121.43265 26146 ft 383 kts 316°
2026-04-25 04:19 36.24306 -121.45290 25678 ft 380 kts 316°
2026-04-25 04:19 36.26379 -121.47308 25216 ft 377 kts 316°
2026-04-25 04:20 36.28439 -121.49313 24673 ft 376 kts 316°
2026-04-25 04:20 36.30461 -121.51279 24310 ft 371 kts 316°
2026-04-25 04:20 36.32485 -121.53250 23863 ft 369 kts 316°
2026-04-25 04:20 36.34499 -121.55213 23405 ft 368 kts 316°
2026-04-25 04:21 36.36526 -121.57193 22915 ft 374 kts 317°
2026-04-25 04:21 36.38602 -121.59225 22355 ft 387 kts 317°
2026-04-25 04:21 36.40782 -121.61362 21535 ft 407 kts 317°
2026-04-25 04:21 36.43002 -121.63528 21193 ft 400 kts 318°
2026-04-25 04:22 36.45160 -121.65628 21012 ft 387 kts 318°
2026-04-25 04:22 36.47239 -121.67658 20838 ft 374 kts 318°
2026-04-25 04:22 36.49227 -121.69601 20664 ft 364 kts 318°
2026-04-25 04:22 36.51296 -121.71454 20096 ft 368 kts 323°
2026-04-25 04:23 36.53446 -121.73151 19892 ft 371 kts 324°
2026-04-25 04:23 36.55709 -121.74895 19672 ft 394 kts 325°
2026-04-25 04:23 36.58090 -121.76734 19441 ft 407 kts 325°
2026-04-25 04:23 36.60494 -121.78604 19082 ft 406 kts 325°
2026-04-25 04:24 36.62876 -121.80472 18568 ft 402 kts 325°
2026-04-25 04:24 36.64437 -121.81704 18191 ft 400 kts 325°
2026-04-25 04:24 36.66772 -121.83554 17593 ft 396 kts 325°
2026-04-25 04:24 36.69852 -121.86001 16858 ft 390 kts 326°
2026-04-25 04:25 36.72098 -121.87786 16312 ft 386 kts 326°
2026-04-25 04:25 36.74403 -121.89473 15754 ft 384 kts 335°
2026-04-25 04:25 36.76981 -121.90338 15241 ft 382 kts 348°
2026-04-25 04:25 36.79578 -121.90994 14706 ft 379 kts 348°
2026-04-25 04:26 36.81279 -121.91441 14355 ft 378 kts 348°
2026-04-25 04:26 36.84701 -121.92369 13622 ft 374 kts 348°
2026-04-25 04:26 36.86380 -121.92833 13227 ft 373 kts 348°
2026-04-25 04:26 36.88903 -121.93536 12669 ft 370 kts 348°
2026-04-25 04:27 36.91392 -121.94232 12390 ft 363 kts 348°
2026-04-25 04:27 36.93861 -121.94924 12126 ft 367 kts 348°
2026-04-25 04:27 36.96361 -121.95673 11881 ft 372 kts 345°
2026-04-25 04:27 36.98848 -121.96601 11627 ft 372 kts 343°
2026-04-25 04:28 37.02085 -121.97904 11189 ft 364 kts 342°
2026-04-25 04:28 37.03712 -121.98565 11021 ft 363 kts 342°
2026-04-25 04:28 37.06128 -121.99538 10784 ft 367 kts 342°
2026-04-25 04:28 37.08537 -122.00497 10542 ft 369 kts 342°
2026-04-25 04:29 37.10976 -122.01458 10288 ft 367 kts 342°
2026-04-25 04:29 37.13406 -122.02412 10035 ft 365 kts 342°
2026-04-25 04:29 37.15823 -122.03359 9518 ft 363 kts 342°
2026-04-25 04:29 37.18222 -122.04298 8988 ft 359 kts 342°
2026-04-25 04:30 37.20603 -122.05231 8466 ft 356 kts 341°
2026-04-25 04:30 37.22935 -122.06145 8262 ft 344 kts 341°
2026-04-25 04:30 37.25179 -122.07024 8111 ft 332 kts 341°
2026-04-25 04:30 37.27350 -122.07876 7970 ft 322 kts 341°
2026-04-25 04:31 37.29482 -122.08715 7544 ft 321 kts 341°
2026-04-25 04:31 37.31602 -122.09550 7149 ft 319 kts 341°
2026-04-25 04:31 37.33718 -122.10385 6760 ft 318 kts 342°
2026-04-25 04:31 37.35821 -122.11215 6341 ft 317 kts 341°
2026-04-25 04:32 37.37895 -122.12030 5906 ft 313 kts 342°
2026-04-25 04:32 37.39953 -122.12753 5512 ft 302 kts 344°
2026-04-25 04:32 37.41955 -122.13408 5154 ft 293 kts 345°
2026-04-25 04:32 37.43896 -122.14042 4814 ft 284 kts 344°
2026-04-25 04:33 37.45785 -122.14664 4468 ft 277 kts 344°
2026-04-25 04:33 37.47625 -122.15277 4144 ft 270 kts 343°
2026-04-25 04:33 37.49417 -122.15878 3819 ft 264 kts 343°
2026-04-25 04:33 37.51164 -122.16465 3540 ft 252 kts 343°
2026-04-25 04:34 37.52767 -122.17035 3297 ft 228 kts 335°
2026-04-25 04:34 37.53894 -122.18204 3111 ft 202 kts 300°
2026-04-25 04:34 37.54590 -122.19648 2854 ft 190 kts 297°
2026-04-25 04:34 37.55215 -122.21053 2604 ft 178 kts 295°
2026-04-25 04:35 37.55777 -122.22395 2384 ft 169 kts 294°
2026-04-25 04:35 37.56317 -122.23692 2167 ft 166 kts 294°
2026-04-25 04:35 37.56846 -122.24957 1949 ft 159 kts 294°
2026-04-25 04:35 37.57348 -122.26157 1744 ft 152 kts 294°
2026-04-25 04:36 37.57837 -122.27327 1550 ft 151 kts 295°
2026-04-25 04:36 37.58320 -122.28481 1365 ft 146 kts 295°
2026-04-25 04:36 37.58785 -122.29590 1143 ft 140 kts 295°
2026-04-25 04:36 37.59236 -122.30669 968 ft 140 kts 296°
2026-04-25 04:37 37.59694 -122.31762 786 ft 141 kts 296°
2026-04-25 04:37 37.60149 -122.32847 592 ft 139 kts 296°
2026-04-25 04:37 37.60599 -122.33923 408 ft 138 kts 296°
2026-04-25 04:37 37.61042 -122.34976 241 ft 139 kts 296°
2026-04-25 04:38 37.61498 -122.36057 43 ft 139 kts 296°
2026-04-25 04:38 37.61925 -122.37082 21 ft 116 kts 297°
2026-04-25 04:38 37.62131 -122.37576 23 ft 28 kts 297°
2026-04-25 04:38 37.62127 -122.37706 21 ft 11 kts 231°
2026-04-25 04:39 37.62085 -122.37768 21 ft 4 kts 227°
2026-04-25 04:39 37.62084 -122.37769 21 ft 0 kts 227°
2026-04-25 04:40 37.62079 -122.37776 23 ft 4 kts 228°
2026-04-25 04:40 37.62041 -122.37828 21 ft 11 kts 227°
2026-04-25 04:40 37.61988 -122.37903 22 ft 11 kts 228°
2026-04-25 04:41 37.61928 -122.37948 22 ft 10 kts 174°
2026-04-25 04:41 37.61869 -122.37906 22 ft 7 kts 149°
2026-04-25 04:41 37.61843 -122.37891 21 ft 2 kts 157°
2026-04-25 04:41 37.61842 -122.37890 21 ft 0 kts 157°
2026-04-25 04:42 37.61819 -122.37844 21 ft 14 kts 113°
2026-04-25 04:42 37.61785 -122.37724 21 ft 15 kts 110°
2026-04-25 04:42 37.61750 -122.37607 21 ft 14 kts 111°
2026-04-25 04:42 37.61713 -122.37498 21 ft 13 kts 117°
2026-04-25 04:43 37.61646 -122.37440 21 ft 14 kts 189°
2026-04-25 04:43 37.61520 -122.37519 21 ft 23 kts 208°
2026-04-25 04:43 37.61386 -122.37608 21 ft 18 kts 207°
2026-04-25 04:43 37.61315 -122.37654 21 ft 7 kts 207°
2026-04-25 04:44 37.61294 -122.37672 22 ft 2 kts 222°
2026-04-25 04:44 37.61290 -122.37677 21 ft 0 kts 226°
2026-04-25 04:44 37.61285 -122.37695 22 ft 1 kts 259°
2026-04-25 04:45 37.61284 -122.37710 21 ft 2 kts 268°
2026-04-25 04:45 37.61282 -122.37735 21 ft 4 kts 263°
2026-04-25 04:45 37.61282 -122.37782 21 ft 7 kts 278°
2026-04-25 04:45 37.61302 -122.37844 22 ft 8 kts 296°
2026-04-25 04:46 37.61326 -122.37903 22 ft 7 kts 297°
2026-04-25 04:46 37.61349 -122.37959 21 ft 7 kts 297°
2026-04-25 04:46 37.61374 -122.38018 22 ft 9 kts 298°
2026-04-25 04:46 37.61402 -122.38111 21 ft 13 kts 264°
2026-04-25 04:47 37.61339 -122.38180 22 ft 12 kts 210°
2026-04-25 04:47 37.61266 -122.38229 22 ft 11 kts 208°
2026-04-25 04:47 37.61256 -122.38245 22 ft 2 kts 266°
2026-04-25 04:47 37.61265 -122.38264 21 ft 3 kts 298°
2026-04-25 04:48 37.61275 -122.38288 21 ft 3 kts 298°
2026-04-25 04:48 37.61279 -122.38299 21 ft 0 kts 297°
2026-04-25 04:48 37.61286 -122.38315 21 ft 4 kts 298°
2026-04-25 04:48 37.61295 -122.38336 21 ft 3 kts 298°
2026-04-25 04:49 37.61303 -122.38356 21 ft 3 kts 298°
2026-04-25 04:49 37.61308 -122.38366 21 ft 0 kts 298°